Weather in Starovirivka

Ukraine / Kharkiv Region     49°41′20″N   37°25′51″E
temp.,
°C
wind,
m/s
gust,
m/s
humid.,
%
clouds,
%
prec.,
mm/h
press.,
hPa
HPBL,
m
18 august, thu
thu1800:00+22ene510515 0.0 1007279
03:00+20ne3651100 0.0 1007102
06:00+19ne2360100 0.4 100856
09:00+23ene1146100 0.8 1008276
12:00+29wsw223596 0.0 1008851
15:00+32ssw222986 0.0 10072113
18:00+31n013061 0.0 10071779
21:00+23nne23571 0.3 100726
19 august, fri
fri1900:00+21ne33695 0.0 100851
03:00+19ne510821 0.0 1009255
06:00+18ne510815 0.1 1010313
09:00+23ene5759100 0.1 1010668
12:00+29e4446100 0.0 10101330
15:00+31e433788 0.1 10092490
18:00+27ne8115492 0.6 1010713
21:00+19e3687100 2.6 1013196
20 august, sat
sat2000:00+18ene3691100 0.0 1013131
03:00+18e3792100 0.0 1013166
06:00+18ene41189100 1.1 1014303
09:00+23ese61355100 1.5 1015795
12:00+23e51142100 0.0 1016805
15:00+28ene7113299 0.0 10141488
18:00+29se51035100 0.0 1013456
21:00+25se51346100 0.0 1015576
21 august, sun
sun2100:00+26ese81430100 0.1 1015959
03:00+24ese71330100 0.1 1016833
06:00+22ese71331100 0.0 1016677
09:00+25ese8122792 0.0 1016800
12:00+29ese8111856 0.0 10161603
15:00+31ese91115100 0.0 10152209
18:00+29e8121799 0.0 10151374
21:00+25e61319100 0.0 1015327
22 august, mon
mon2200:00+23e61518100 0.0 1015356
03:00+22e6152299 0.0 1015419
06:00+21e61433100 0.0 1015549
09:00+25ese91334100 0.0 1016949
12:00+29ese101426100 0.0 10151857
15:00+32ese101319100 0.0 10142652
18:00+31e91320100 0.0 10141743
21:00+27e7152270 0.0 1015495